TimeEDT,TemperatureF,Dew PointF,Humidity,Sea Level PressureIn,VisibilityMPH,Wind Direction,Wind SpeedMPH,Gust SpeedMPH,PrecipitationIn,Events,Conditions,WindDirDegrees,DateUTC
12:15 AM,62.6,42.8,48,29.66,10.0,SSW,11.5,-,N/A,,Clear,200,2012-10-18 04:15:00
12:35 AM,62.6,42.8,48,29.65,10.0,South,12.7,18.4,N/A,,Clear,190,2012-10-18 04:35:00
12:55 AM,62.6,42.8,48,29.65,10.0,South,10.4,-,N/A,,Clear,190,2012-10-18 04:55:00
1:15 AM,60.8,42.8,52,29.65,10.0,South,10.4,16.1,N/A,,Clear,190,2012-10-18 05:15:00
1:35 AM,60.8,42.8,52,29.64,10.0,South,10.4,-,N/A,,Clear,190,2012-10-18 05:35:00
1:55 AM,60.8,42.8,52,29.64,10.0,SSW,11.5,18.4,N/A,,Clear,200,2012-10-18 05:55:00
2:15 AM,60.8,42.8,52,29.64,10.0,SSW,11.5,18.4,N/A,,Clear,200,2012-10-18 06:15:00
2:35 AM,60.8,42.8,52,29.63,10.0,SSW,11.5,-,N/A,,Clear,200,2012-10-18 06:35:00
2:55 AM,62.6,42.8,48,29.61,10.0,South,13.8,18.4,N/A,,Clear,190,2012-10-18 06:55:00
3:15 AM,62.6,44.6,52,29.61,10.0,SSW,13.8,19.6,N/A,,Clear,200,2012-10-18 07:15:00
3:35 AM,60.8,44.6,55,29.66,10.0,West,11.5,-,N/A,,Mostly Cloudy,270,2012-10-18 07:35:00
3:55 AM,62.6,44.6,52,29.65,10.0,West,11.5,17.3,N/A,,Overcast,260,2012-10-18 07:55:00
4:15 AM,62.6,46.4,55,29.66,10.0,WSW,17.3,27.6,N/A,,Overcast,250,2012-10-18 08:15:00
4:35 AM,55.4,51.8,88,29.68,10.0,West,15.0,29.9,N/A,,Overcast,260,2012-10-18 08:35:00
4:55 AM,55.4,51.8,88,29.68,10.0,WSW,13.8,21.9,N/A,Rain,Light Rain,250,2012-10-18 08:55:00
5:15 AM,55.4,51.8,88,29.68,10.0,SW,10.4,17.3,N/A,Rain,Light Rain,230,2012-10-18 09:15:00
5:35 AM,55.4,53.6,94,29.67,10.0,SSW,15.0,-,N/A,Rain,Rain,210,2012-10-18 09:35:00
5:55 AM,53.6,51.8,94,29.58,10.0,South,19.6,27.6,N/A,Rain,Light Rain,180,2012-10-18 09:55:00
6:15 AM,55.4,51.8,88,29.62,10.0,SSW,15.0,21.9,N/A,,Scattered Clouds,210,2012-10-18 10:15:00
6:35 AM,55.4,50.0,82,29.63,10.0,SW,9.2,16.1,N/A,,Scattered Clouds,220,2012-10-18 10:35:00
6:55 AM,55.4,50.0,82,29.65,10.0,SW,9.2,18.4,N/A,,Mostly Cloudy,220,2012-10-18 10:55:00
7:35 AM,55.4,51.8,88,29.66,10.0,SW,13.8,18.4,N/A,,Overcast,220,2012-10-18 11:35:00
7:55 AM,55.4,51.8,88,29.66,10.0,SW,11.5,17.3,N/A,,Overcast,230,2012-10-18 11:55:00
8:15 AM,55.4,51.8,88,29.67,10.0,WSW,10.4,-,N/A,,Overcast,240,2012-10-18 12:15:00
8:35 AM,55.4,51.8,88,29.67,10.0,WSW,9.2,16.1,N/A,,Overcast,240,2012-10-18 12:35:00
8:55 AM,57.2,51.8,82,29.68,10.0,WSW,13.8,21.9,N/A,,Overcast,250,2012-10-18 12:55:00
9:15 AM,55.4,50.0,82,29.69,10.0,West,15.0,23.0,N/A,,Overcast,280,2012-10-18 13:15:00
9:35 AM,53.6,50.0,88,29.71,10.0,WNW,16.1,21.9,N/A,,Overcast,290,2012-10-18 13:35:00
10:15 AM,53.6,50.0,88,29.73,10.0,WNW,13.8,20.7,N/A,,Overcast,290,2012-10-18 14:15:00
10:35 AM,53.6,50.0,88,29.73,10.0,West,12.7,17.3,N/A,,Mostly Cloudy,260,2012-10-18 14:35:00
10:55 AM,55.4,48.2,77,29.73,10.0,West,12.7,17.3,N/A,,Mostly Cloudy,280,2012-10-18 14:55:00
11:15 AM,55.4,46.4,72,29.74,10.0,West,11.5,19.6,N/A,,Mostly Cloudy,280,2012-10-18 15:15:00
11:35 AM,59.0,46.4,63,29.74,10.0,West,11.5,19.6,N/A,,Scattered Clouds,270,2012-10-18 15:35:00
11:55 AM,59.0,42.8,55,29.75,10.0,West,19.6,26.5,N/A,,Clear,270,2012-10-18 15:55:00
12:15 PM,59.0,42.8,55,29.74,10.0,West,15.0,23.0,N/A,,Mostly Cloudy,270,2012-10-18 16:15:00
12:35 PM,60.8,42.8,52,29.74,10.0,West,16.1,20.7,N/A,,Mostly Cloudy,270,2012-10-18 16:35:00
12:55 PM,59.0,42.8,55,29.75,10.0,West,12.7,20.7,N/A,,Mostly Cloudy,270,2012-10-18 16:55:00
1:15 PM,60.8,41.0,48,29.74,10.0,WNW,15.0,21.9,N/A,,Mostly Cloudy,290,2012-10-18 17:15:00
1:35 PM,60.8,39.2,45,29.74,10.0,West,12.7,25.3,N/A,,Mostly Cloudy,260,2012-10-18 17:35:00
1:55 PM,60.8,41.0,48,29.74,10.0,West,16.1,23.0,N/A,,Mostly Cloudy,260,2012-10-18 17:55:00
2:15 PM,60.8,41.0,48,29.73,10.0,WNW,15.0,21.9,N/A,,Mostly Cloudy,290,2012-10-18 18:15:00
2:35 PM,60.8,41.0,48,29.73,10.0,WNW,10.4,-,N/A,,Overcast,290,2012-10-18 18:35:00
2:55 PM,60.8,39.2,45,29.73,10.0,West,8.1,17.3,N/A,,Overcast,280,2012-10-18 18:55:00
3:15 PM,60.8,37.4,42,29.73,10.0,West,15.0,21.9,N/A,,Overcast,260,2012-10-18 19:15:00
3:35 PM,62.6,35.6,37,29.72,10.0,West,11.5,18.4,N/A,,Mostly Cloudy,270,2012-10-18 19:35:00
3:55 PM,64.4,33.8,32,29.72,10.0,West,15.0,19.6,N/A,,Scattered Clouds,270,2012-10-18 19:55:00
4:15 PM,64.4,32.0,30,29.73,10.0,WNW,13.8,21.9,N/A,,Clear,290,2012-10-18 20:15:00
4:35 PM,62.6,32.0,32,29.73,10.0,West,17.3,24.2,N/A,,Clear,270,2012-10-18 20:35:00
4:55 PM,62.6,32.0,32,29.73,10.0,West,8.1,17.3,N/A,,Clear,280,2012-10-18 20:55:00
5:15 PM,62.6,30.2,30,29.73,10.0,West,12.7,18.4,N/A,,Clear,270,2012-10-18 21:15:00
5:35 PM,62.6,32.0,32,29.73,10.0,West,11.5,16.1,N/A,,Clear,280,2012-10-18 21:35:00
5:55 PM,62.6,32.0,32,29.73,10.0,West,5.8,-,N/A,,Clear,260,2012-10-18 21:55:00
6:15 PM,60.8,32.0,34,29.73,10.0,West,6.9,-,N/A,,Clear,260,2012-10-18 22:15:00
6:35 PM,59.0,30.2,34,29.74,10.0,WSW,6.9,-,N/A,,Clear,250,2012-10-18 22:35:00
6:55 PM,57.2,30.2,36,29.74,10.0,West,4.6,-,N/A,,Clear,270,2012-10-18 22:55:00
7:15 PM,55.4,30.2,38,29.75,10.0,WSW,3.5,-,N/A,,Clear,240,2012-10-18 23:15:00
7:55 PM,53.6,32.0,44,29.76,10.0,SW,3.5,-,N/A,,Clear,220,2012-10-18 23:55:00
8:15 PM,50.0,32.0,50,29.76,10.0,SSW,3.5,-,N/A,,Clear,210,2012-10-19 00:15:00
8:35 PM,51.8,32.0,47,29.76,10.0,South,3.5,-,N/A,,Clear,190,2012-10-19 00:35:00
8:55 PM,48.2,33.8,58,29.76,10.0,South,3.5,-,N/A,,Clear,190,2012-10-19 00:55:00
9:35 PM,46.4,33.8,62,29.76,10.0,South,6.9,-,N/A,,Overcast,180,2012-10-19 01:35:00
9:55 PM,51.8,32.0,47,29.76,10.0,South,6.9,-,N/A,,Mostly Cloudy,170,2012-10-19 01:55:00
10:15 PM,48.2,33.8,58,29.75,10.0,South,4.6,-,N/A,,Mostly Cloudy,170,2012-10-19 02:15:00
10:35 PM,46.4,33.8,62,29.75,10.0,South,5.8,-,N/A,,Scattered Clouds,180,2012-10-19 02:35:00
10:55 PM,46.4,33.8,62,29.75,10.0,SSW,5.8,-,N/A,,Clear,200,2012-10-19 02:55:00
11:15 PM,50.0,32.0,50,29.74,10.0,South,6.9,-,N/A,,Scattered Clouds,190,2012-10-19 03:15:00
11:35 PM,50.0,32.0,50,29.74,10.0,South,8.1,-,N/A,,Overcast,190,2012-10-19 03:35:00
11:55 PM,48.2,33.8,58,29.74,10.0,SSW,5.8,-,N/A,,Overcast,210,2012-10-19 03:55:00